Weather History for YFRT - March, 2013

Change the Weather History Date:

Saturday, March 30, 2013

  Actual Average Record
Temperature  
Mean Temperature 63 °F -  
Max Temperature 76 °F - - ()
Min Temperature 50 °F - - ()
Degree Days  
Heating Degree Days 2    
Growing Degree Days 13 (Base 50)    
Moisture  
Dew Point 53 °F    
Average Humidity 72    
Maximum Humidity 100    
Minimum Humidity 26    
Precipitation  
Precipitation 0.00 in - - ()
Sea Level Pressure  
Sea Level Pressure 30.12 in    
Wind  
Wind Speed 7 mph ()    
Max Wind Speed 18 mph    
Max Gust Speed -    
T = Trace of Precipitation, MM = Missing Value Source: Averaged Metar Reports

Daily Weather History Graph

Daily Weather History Graph

Search for Another Location

Airport or City:

Trip Planner

Search our weather history database for the weather conditions in past years. The results will help you decide how hot, cold, wet, or windy it might be!

Date:

Astronomy

Mar. 30, 2013 Rise Set
Actual Time 5:37 AM AWST 5:26 PM AWST
Civil Twilight 5:13 AM AWST 5:50 PM AWST
Nautical Twilight 4:45 AM AWST 6:18 PM AWST
Astronomical Twilight 4:16 AM AWST 6:46 PM AWST
Moon 7:25 PM AWST (3/30) 8:22 AM AWST (3/30)
Length of Visible Light 12h 37m
Length of Day
11h 49m
Waning Gibbous, 90% of the Moon is Illuminated
Mar 30
Waning Gibbous
Apr 3
Last Quarter
Apr 10
New
Apr 18
First Quarter
Apr 26
Full

Hourly Weather History & Observations

Time (AWST) Temp. Dew Point Humidity Pressure Visibility Wind Dir Wind Speed Gust Speed Precip Events Conditions
12:00 AM 58 °F 58 °F 98% 30.12 in - NE 5.8 mph - -  
12:00 AM 57.2 °F 57.2 °F 100% 30.12 in - NE 5.8 mph - N/A   Unknown
1:00 AM 57.2 °F 57.2 °F 100% 30.12 in - North 8.1 mph - N/A   Unknown
2:00 AM 56 °F 56 °F 100% 30.12 in - North 6.9 mph - -  
2:00 AM 57.2 °F 55.4 °F 94% 30.12 in - North 6.9 mph - N/A   Unknown
3:00 AM 56 °F 55 °F 96% 30.11 in - North 5.8 mph - -  
3:00 AM 55.4 °F 55.4 °F 100% 30.12 in - North 5.8 mph - N/A   Unknown
4:00 AM 55.4 °F 53.6 °F 94% 30.12 in - North 6.9 mph - N/A   Unknown
5:00 AM 52 °F 52 °F 99% 30.12 in - North 5.8 mph - -  
5:00 AM 51.8 °F 51.8 °F 100% 30.12 in - North 5.8 mph - N/A   Unknown
6:00 AM 51 °F 51 °F 100% 30.13 in - NNW 8.1 mph - -  
6:00 AM 51.8 °F 51.8 °F 100% 30.12 in - NNW 8.1 mph - N/A   Unknown
7:00 AM 59.0 °F 57.2 °F 94% 30.15 in - NW 6.9 mph - N/A   Unknown
8:00 AM 64 °F 54 °F 63% 30.15 in - NW 6.9 mph - -  
8:00 AM 64.4 °F 53.6 °F 68% 30.15 in - NW 6.9 mph - N/A   Unknown
9:00 AM 67 °F 51 °F 47% 30.15 in - WNW 5.8 mph - -  
9:00 AM 68.0 °F 51.8 °F 56% 30.15 in - WNW 5.8 mph - N/A   Unknown
10:00 AM 68.0 °F 50.0 °F 52% 30.15 in - West 8.1 mph - N/A   Unknown
11:00 AM 71 °F 48 °F 33% 30.12 in - West 9.2 mph - -  
11:00 AM 71.6 °F 48.2 °F 43% 30.12 in - West 9.2 mph - N/A   Unknown
12:00 PM 73 °F 47 °F 28% 30.10 in - SSW 6.9 mph - -  
12:00 PM 73.4 °F 46.4 °F 38% 30.09 in - SSW 6.9 mph - N/A   Unknown
1:00 PM 73.4 °F 46.4 °F 38% 30.09 in - South 9.2 mph - N/A   Unknown
2:00 PM 74 °F 47 °F 27% 30.06 in - SSW 9.2 mph - -  
2:00 PM 73.4 °F 46.4 °F 38% 30.06 in - SSW 9.2 mph - N/A   Unknown
3:00 PM 75 °F 47 °F 26% 30.07 in - SSW 9.2 mph - -  
3:00 PM 75.2 °F 46.4 °F 36% 30.06 in - SSW 9.2 mph - N/A   Unknown
4:00 PM 73.4 °F 48.2 °F 41% 30.06 in - South 11.5 mph - N/A   Unknown
5:00 PM 72 °F 52 °F 39% 30.09 in - South 15.0 mph - -  
5:00 PM 71.6 °F 51.8 °F 50% 30.09 in - South 15.0 mph - N/A   Unknown
6:00 PM 67 °F 57 °F 62% 30.11 in - SSE 18.4 mph - -  
6:00 PM 66.2 °F 57.2 °F 73% 30.12 in - SSE 18.4 mph - N/A   Unknown
7:00 PM 64.4 °F 59.0 °F 83% 30.12 in - SSE 15.0 mph - N/A   Unknown
8:00 PM 62 °F 60 °F 90% 30.15 in - SSE 11.5 mph - -  
8:00 PM 62.6 °F 60.8 °F 94% 30.15 in - SSE 11.5 mph - N/A   Unknown
9:00 PM 60 °F 60 °F 98% 30.16 in - SSE 8.1 mph - -  
9:00 PM 60.8 °F 59.0 °F 94% 30.15 in - SSE 8.1 mph - N/A   Unknown
10:00 PM 59.0 °F 59.0 °F 100% 30.15 in - SSE 8.1 mph - N/A   Unknown
11:00 PM 56 °F 56 °F 100% 30.16 in - South 5.8 mph - -  
11:00 PM 57.2 °F 55.4 °F 94% 30.15 in - South 5.8 mph - N/A   Unknown